Weather History for KPHP - November, 2013

Change the Weather History Date:

Thursday, November 7, 2013

  Actual Average Record
Temperature  
Mean Temperature 34 °F 38 °F  
Max Temperature 46 °F 52 °F 82 °F (1999)
Min Temperature 22 °F 25 °F -8 °F (1991)
Degree Days  
Heating Degree Days 31 27  
Month to date heating degree days 194 177  
Since 1 July heating degree days 777 880  
Cooling Degree Days 0 0  
Month to date cooling degree days 0 0  
Year to date cooling degree days 945 818  
Moisture  
Dew Point 27 °F    
Average Humidity 77    
Maximum Humidity 96    
Minimum Humidity 58    
Precipitation  
Precipitation 0.00 in 0.02 in 0.45 in (1950)
Month to date precipitation 0.39 0.19  
Year to date precipitation 15.25 16.49  
Sea Level Pressure  
Sea Level Pressure 30.27 in    
Wind  
Wind Speed 6 mph (SSW)    
Max Wind Speed 14 mph    
Max Gust Speed 16 mph    
Visibility 10 miles    
Events      
T = Trace of Precipitation, MM = Missing Value Source: NWS Daily Summary

Daily Weather History Graph

Daily Weather History Graph

Search for Another Location

Airport or City:

Trip Planner

Search our weather history database for the weather conditions in past years. The results will help you decide how hot, cold, wet, or windy it might be!

Date:

Astronomy

Nov. 07, 2013 Rise Set
Actual Time 6:31 AM MST 4:28 PM MST
Civil Twilight 6:00 AM MST 4:58 PM MST
Nautical Twilight 5:26 AM MST 5:33 PM MST
Astronomical Twilight 4:52 AM MST 6:07 PM MST
Moon 10:43 AM MST (11/7) 8:40 PM MST (11/7)
Length of Visible Light 10h 58m
Length of Day
9h 57m
Waxing Crescent, 23% of the Moon is Illuminated
Nov 7
Waxing Crescent
Nov 9
First Quarter
Nov 17
Full
Nov 25
Last Quarter
Dec 2
New

Hourly Weather History & Observations

Time (MST) Temp. Windchill Dew Point Humidity Pressure Visibility Wind Dir Wind Speed Gust Speed Precip Events Conditions
12:55 AM 27.0 °F 18.7 °F 24.1 °F 89% 30.38 in 10.0 mi WSW 8.1 mph - N/A   Clear
1:55 AM 26.1 °F 18.4 °F 23.0 °F 88% 30.38 in 10.0 mi West 6.9 mph - N/A   Clear
2:55 AM 23.0 °F - 21.0 °F 92% 30.39 in 10.0 mi Calm Calm - N/A   Clear
3:55 AM 25.0 °F - 21.0 °F 85% 30.39 in 10.0 mi Calm Calm - N/A   Clear
4:55 AM 21.9 °F 14.5 °F 19.9 °F 92% 30.41 in 10.0 mi West 5.8 mph - N/A   Clear
5:55 AM 23.0 °F 13.9 °F 19.9 °F 88% 30.41 in 10.0 mi West 8.1 mph - N/A   Clear
6:55 AM 23.0 °F 14.7 °F 19.9 °F 88% 30.43 in 10.0 mi West 6.9 mph - N/A   Clear
7:55 AM 28.0 °F 21.7 °F 24.1 °F 85% 30.42 in 10.0 mi West 5.8 mph - N/A   Clear
8:55 AM 30.9 °F 22.2 °F 25.0 °F 79% 30.41 in 10.0 mi WSW 10.4 mph - N/A   Clear
9:55 AM 37.0 °F 29.8 °F 27.0 °F 67% 30.39 in 10.0 mi WSW 10.4 mph - N/A   Clear
10:55 AM 39.0 °F 33.4 °F 28.9 °F 67% 30.38 in 10.0 mi West 8.1 mph - N/A   Scattered Clouds
11:55 AM 41.0 °F 34.3 °F 30.0 °F 65% 30.36 in 10.0 mi WSW 11.5 mph - N/A   Clear
12:55 PM 43.0 °F 40.3 °F 30.9 °F 62% 30.32 in 10.0 mi SW 4.6 mph - N/A   Clear
1:55 PM 45.0 °F 42.6 °F 30.9 °F 58% 30.29 in 10.0 mi South 4.6 mph - N/A   Clear
2:55 PM 45.0 °F 41.8 °F 30.9 °F 58% 30.27 in 10.0 mi South 5.8 mph - N/A   Clear
3:55 PM 45.0 °F - 32.0 °F 60% 30.23 in 10.0 mi Calm Calm - N/A   Clear
4:55 PM 39.0 °F 36.8 °F 30.0 °F 70% 30.22 in 10.0 mi East 3.5 mph - N/A   Clear
5:55 PM 36.0 °F 30.3 °F 28.9 °F 76% 30.19 in 10.0 mi ESE 6.9 mph - N/A   Clear
6:55 PM 33.1 °F 26.1 °F 28.0 °F 82% 30.17 in 10.0 mi East 8.1 mph - N/A   Clear
7:55 PM 32.0 °F 25.6 °F 27.0 °F 82% 30.12 in 10.0 mi East 6.9 mph - N/A   Clear
8:55 PM 37.0 °F 29.8 °F 27.0 °F 67% 30.06 in 10.0 mi ESE 10.4 mph - N/A   Clear
9:55 PM 37.0 °F 30.4 °F 28.9 °F 73% 30.01 in 10.0 mi ESE 9.2 mph - N/A   Overcast
10:55 PM 36.0 °F 29.0 °F 28.9 °F 76% 29.94 in 10.0 mi East 9.2 mph - N/A   Mostly Cloudy
11:55 PM 34.0 °F - 28.9 °F 82% 29.88 in 10.0 mi Calm Calm - N/A   Clear